User: anonymous   Login
Location: St. Louis
(38.6270°N, 90.1994°W)
Time: 23:27:51
(UTC-06:00)
Language:

FO-29 - Orbit

View from above orbital plane
View from above orbital plane
View from above satellite
View from above satellite

Ground track
Ground track

The orbit data is extracted from the following two-line orbital elements,

1 24278U 96046B   22026.60970671 -.00000035  00000-0  35360-5 0  9997
2 24278  98.5367  69.6852 0349303 291.3317  65.0877 13.53109753256426
Epoch (UTC): 26 January 2022 14:37:58
Eccentricity: 0.0349303
inclination: 98.5367°
perigee height: 801 km
apogee height: 1320 km
right ascension of ascending node: 69.6852°
argument of perigee: 291.3317°
revolutions per day: 13.53109753
mean anomaly at epoch: 65.0877°
orbit number at epoch: 25642

The dashed part of the orbit path shows where the satellite is in the earth's shadow,  

DLR